This is the latest recevied weather packets stored in our database for station/object EA3CTN-13. If no packets are shown the sender has not sent any weather packets the latest 10 day(s).
| Time | Temp. | Humidity | Pressure | Rain* | Wind** | Luminosity | Snow |
|---|---|---|---|---|---|---|---|
| 1787596452 | 28.33° C | 47% | 1010.2 hPa | - | - | - | - |
| 1787595972 | 28.33° C | 46% | 1010.6 hPa | - | - | - | - |
| 1787595492 | 28.33° C | 47% | 1010.4 hPa | - | - | - | - |
| 1787595012 | 28.33° C | 45% | 1010.2 hPa | - | - | - | - |
| 1787594532 | 28.33° C | 47% | 1010.4 hPa | - | - | - | - |
| 1787594052 | 28.33° C | 49% | 1010.4 hPa | - | - | - | - |
| 1787593572 | 28.89° C | 49% | 1010.2 hPa | - | - | - | - |
| 1787593092 | 28.89° C | 54% | 1009.4 hPa | - | - | - | - |
| 1787592612 | 28.89° C | 60% | 1009.3 hPa | - | - | - | - |
| 1787592132 | 28.89° C | 62% | 1009.3 hPa | - | - | - | - |
| 1787591652 | 28.89° C | 64% | 1009.1 hPa | - | - | - | - |
| 1787591171 | 29.44° C | 62% | 1009.7 hPa | - | - | - | - |
| 1787590693 | 29.44° C | 61% | 1010.6 hPa | - | - | - | - |
| 1787590212 | 29.44° C | 60% | 1010.1 hPa | - | - | - | - |
| 1787589731 | 29.44° C | 61% | 1010.4 hPa | - | - | - | - |
| 1787589251 | 29.44° C | 61% | 1010.1 hPa | - | - | - | - |
| 1787588772 | 28.89° C | 62% | 1009.9 hPa | - | - | - | - |
| 1787588291 | 28.89° C | 60% | 1009.8 hPa | - | - | - | - |
| 1787587812 | 29.44° C | 60% | 1009.8 hPa | - | - | - | - |
| 1787587332 | 29.44° C | 59% | 1009.7 hPa | - | - | - | - |
| 1787586851 | 29.44° C | 59% | 1009.6 hPa | - | - | - | - |
| 1787586371 | 29.44° C | 59% | 1009.6 hPa | - | - | - | - |
| 1787585891 | 29.44° C | 58% | 1009.5 hPa | - | - | - | - |
| 1787585412 | 30° C | 56% | 1009.9 hPa | - | - | - | - |
| 1787584931 | 30.56° C | 56% | 1009.9 hPa | - | - | - | - |
* Rain since midnight (hover to see other rain measurements)
** Current wind speed in m/s (hover to see current wind gust speed)